Regional Weather Roundup
Issued by NWS

Home | Current Version | Previous Version | Graphics & Text | Print | Product List | Glossary On
Versions: 1 2 3 4 5 6 7 8 9 10 11 12 13 14 15 16 17 18 19 20 21 22 23 24 25 26 27 28 29 30 31 32 33 34 35 36 37 38 39 40 41 42 43 44 45 46 47 48 49 50
000
ASUS43 KLMK 251502
RWRKY
KENTUCKY REGIONAL WEATHER ROUNDUP
NATIONAL WEATHER SERVICE LOUISVILLE KY
1100 AM EDT FRI JUL 25 2014

NOTE "FAIR" INDICATES FEW OR NO CLOUDS BELOW 12,000 FEET
WITH NO SIGNIFICANT WEATHER AND/OR OBSTRUCTIONS TO VISIBILITY.

KYZ001>023-026-027-061>063-070>075-251600-
WESTERN AND SOUTH CENTRAL KENTUCKY

CITY           SKY/WX    TMP DP  RH WIND       PRES   REMARKS
PADUCAH        MOSUNNY   76  60  57 S8        30.08S
HENDERSON      MOSUNNY   73  61  64 S3        30.08F
OWENSBORO      MOSUNNY   74  56  53 S5        30.09S
HOPKINSVILLE   PTSUNNY   76  59  56 S3        30.08F
BOWLING GREEN  SUNNY     76  58  53 CALM      30.10R
GLASGOW        SUNNY     75  55  49 N5        30.10R
$$

KYZ024-025-028>034-038-045-046-053-251600-
NORTH CENTRAL KENTUCKY

CITY           SKY/WX    TMP DP  RH WIND       PRES   REMARKS
LOUISVILLE/SDF PTSUNNY   75  57  53 SE5       30.10R
LOUISVILLE/LOU MOSUNNY   75  57  53 S5        30.11R
FORT KNOX      SUNNY     73  58  60 VRB1      30.10R
$$

KYZ035>037-039>044-047>052-055>060-089>105-251600-
NORTHEAST KENTUCKY

CITY           SKY/WX    TMP DP  RH WIND       PRES   REMARKS
LEXINGTON      MOSUNNY   75  55  49 E3        30.11R
COVINGTON      PTSUNNY   71  54  54 SW5       30.12R
FRANKFORT      SUNNY     74  57  55 NE3       30.10S
$$

KYZ054-064>069-076>088-106>120-251600-
SOUTHEAST KENTUCKY

CITY           SKY/WX    TMP DP  RH WIND       PRES   REMARKS
JACKSON        CLOUDY    62  60  93 CALM      30.13S FOG
LONDON         CLOUDY    66  60  81 NE6       30.13S
SOMERSET       CLOUDY    61  61 100 CALM      30.13R
MIDDLESBORO    CLOUDY    66  61  82 CALM      30.12S
MONTICELLO     PTSUNNY   68  64  86 NE6       30.13R
$$




USA.gov is the U.S. government's official web portal to all federal, state and local government web resources and services.